Voltar ao catálogo

STARLINK-31426

AtivoComunicaçõesVLEO
NORAD 59249·PAYLOAD·🇺🇸 United States

Lançado Mar 16, 2024 de Cape Canaveral Space Force Station

Loading…

Próximas Passagens (próximas 24 horas)

TLE

AtualizadoSource: CelesTrak SupGP

Época: Sep 14, 2026, 22:27 UTC

1 59249C 24049U   26257.93590278 -.00054178  00000+0 -19627-2 0  2573
2 59249  43.0009 154.9719 0001320 270.0948 190.9463 15.27599226    10

Acompanhe STARLINK-31426 em tempo real com AllMySat

Download on the App Store